Starlink 30254

operational
NORAD ID: 57533 Int'l Des: 2023-115 Owner: SPXS Country: US Constellation: starlink
LEOCIRCULAR

About Starlink 30254

Description loading...

Live Position

Loading 3D Globe...

Upcoming Passes

Altitude History

Altitude vs Time

uPlot chart will show altitude changes over time

Two-Line Element Set

1 57533U 23115N 25261.28926706 .00002350 00000-0 94854-4 0 9995
2 57533 42.9973 356.7807 0000330 221.3620 138.7207 15.27582441118992
Epoch: Sep 18, 2025 • Age: 13 hours

Current Status

Altitude 482.2 km
Velocity 7.63 km/s
Sub-Earth Point 10.62°N, 73.9°E
Launch Date Aug 8, 2023
Age 2.1 years
Type internet

Technical Details

Classification Payload
Mass 730.00 kg
Dry Mass 700.00 kg
Total Mass 730.00 kg
Length 0.30 m
Diameter 4.10 m
Span 29.00 m
Shape Box + pan
Manufacturer SPXS
Bus Type Starlink V2M
Phase Status In Orbit
Owner/State SPXS/US

Large Constellations

Loading constellations...